Location: Mexico
(19.4000°N, 99.1500°W)
Time: 07:45:27
(UTC-06:00)

ISS - Pass Details

Date: 22 August 2019
Orbit: 410 x 420 km, 51.6° (Epoch: 21 August)

Event Time Altitude Azimuth Distance (km) Brightness Sun altitude
Exits shadow 05:19:17 11° 192° (SSW) 1,399 -1.4 -14.4°
Maximum altitude 05:22:08 34° 126° (SE) 690 -2.3 -13.8°
Drops below altitude 10° 05:25:11 10° 59° (ENE) 1,478 0.4 -13.1°
Sets 05:27:23 0° 50° (NE) 2,343 1.4 -12.6°
